Location: Brno
(49.2000°N, 16.6330°E)
Time: 22:18:25
(UTC+02:00)

Cosmos 2227 - Visible Passes

Search period start: 03 July 2015 00:00
Search period end: 13 July 2015 00:00
Orbit: 835 x 861 km, 71.0° (Epoch: 02 July)

Date Brightness Start Highest point End Pass type
(mag) Time Alt. Az. Time Alt. Az. Time Alt. Az.
03 Jul 4.5 02:53:21 17° S 02:57:43 62° ESE 03:03:23 10° NE visible
04 Jul 4.5 02:40:38 19° S 02:44:38 61° ESE 02:50:17 10° NE visible
05 Jul 4.5 02:27:52 22° S 02:31:33 60° ESE 02:37:12 10° NE visible
05 Jul 5.5 04:11:08 10° WSW 04:16:11 30° NW 04:21:11 10° NNE visible
06 Jul 4.5 02:15:05 24° S 02:18:29 59° ESE 02:24:07 10° NE visible
06 Jul 5.5 03:58:01 10° WSW 04:03:05 31° NW 04:08:06 10° NNE visible
07 Jul 4.5 02:02:16 26° S 02:05:24 58° ESE 02:11:02 10° NE visible
07 Jul 5.5 03:44:55 10° WSW 03:50:00 31° NW 03:55:01 10° NNE visible
08 Jul 4.5 01:49:26 28° S 01:52:19 57° ESE 01:57:57 10° NE visible
08 Jul 5.5 03:31:49 10° WSW 03:36:54 31° NW 03:41:57 10° NNE visible
09 Jul 4.5 01:36:33 30° S 01:39:15 57° ESE 01:44:51 10° NE visible
09 Jul 5.5 03:18:43 10° WSW 03:23:49 32° NW 03:28:52 10° NNE visible
10 Jul 4.5 01:23:38 31° S 01:26:10 56° ESE 01:31:46 10° NE visible
10 Jul 5.5 03:05:36 10° WSW 03:10:43 32° NW 03:15:47 10° NNE visible
11 Jul 4.5 01:10:42 32° S 01:13:06 55° ESE 01:18:41 10° NE visible
11 Jul 5.5 02:52:38 11° WSW 02:57:38 32° NW 03:02:43 10° NNE visible
12 Jul 4.5 00:57:43 33° S 01:00:01 54° ESE 01:05:36 10° NE visible
12 Jul 5.5 02:39:39 11° WSW 02:44:33 33° NW 02:49:38 10° NNE visible
